Reflectivity
-20 -17 9 -6 9 -20 -20 -12 -16 3 13 12 9 6 14 13 15 15 16 8 12 1 -20 -20 -20 -20 -20 -20 -20 -20 -15 -5 -20 -20 -16 -2 3 9 11 16 12 5 6
-20 -20 8 4 -7 -20 -18 -6 -9 -19 15 11 8 18 15 11 13 17 17 0 -20 -20 -20 -20 -20 -20 -20 -20 -20 -20 -20 -20 -20 -20 -20 -1 1 9 13 13 15 -4 12
-20 -20 -9 -15 -20 4 20 -20 -17 3 -20 -6 13 18 7 15 15 15 -20 -20 -20 -20 -20 -20 -20 -20 -20 -20 -20 -20 -20 -20 -20 -20 -20 -20 -20 2 4 10 10 12 15
14 -20 -14 -20 -20 21 19 -20 -12 -7 -20 11 11 16 12 17 4 -20 -20 -20 -20 -20 -20 -20 -20 -20 -20 -20 -20 -20 -20 -20 -20 -20 -20 -20 -20 -20 -0 5 -5 -6 -7
11 -8 1 -10 16 3 -20 -1 -8 -20 -5 7 12 11 6 -20 -20 -20 -20 -20 -20 -20 -20 -20 -20 -20 -20 -20 -20 -20 -20 -20 -20 -20 -20 -20 -20 -20 -20 -20 -20 -20 -20
11 6 -13 20 -18 -20 0 1 -20 -20 6 12 -17 8 -20 -20 -20 -20 -20 -20 -20 -20 -20 -20 -20 -20 -20 -20 -20 -20 -20 -20 -20 -20 -20 -20 -20 -20 -20 -20 -20 -20 -20
-9 -18 -20 26 -19 17 2 -20 -20 -4 16 12 -20 -20 -20 -20 -20 -20 -20 -20 -20 -20 -20 -20 -20 -20 -20 -20 -20 -20 -20 -20 -20 -20 -20 -20 -20 -20 -20 -20 -20 -20 -20
4 -18 -20 -7 18 18 5 -20 -17 1 7 -20 -20 -20 -20 -20 -20 -20 -20 -20 -20 -20 -20 -20 -20 -20 -20 -20 -20 -20 -20 -20 -20 -20 -20 -20 -20 -20 -20 -20 -20 -20 -20
18 -20 20 7 4 21 -20 -18 0 -6 -20 -20 -20 -20 -20 -20 -20 -20 -20 -20 -20 -20 -20 -20 -20 -20 -20 -20 -20 -20 -20 -20 -20 -20 -20 -20 -20 -20 -20 -20 -20 -20 -20
32 9 -9 -20 7 -14 -4 -0 -0 11 -20 -20 -20 -20 -20 -20 -20 -20 -20 -20 -20 -20 -20 -20 -20 -20 -20 -20 -20 -20 -20 -20 -20 -20 -20 -20 -20 -20 -20 -20 -20 -20 -20
32 32 3 -4 -9 -3 -20 1 -2 -19 -20 -18 -10 -20 -20 -20 -20 -20 -20 -20 -20 -20 -20 -20 -20 -20 -20 -20 -20 -20 -20 -20 -20 -20 -20 -20 -20 -20 -20 -20 -20 -20 -20
37 33 10 3 -19 22 -20 2 -6 -20 -20 -20 -20 -20 -20 -20 -20 -20 -20 -20 -20 -20 -20 -20 -20 -20 -20 -20 -20 -20 -20 -20 -20 -20 -20 -20 -20 -20 -20 -20 -20 -20 -20
35 35 25 23 17 2 5 -1 -9 -20 -20 -20 -20 -20 -20 -20 -20 -20 -20 -20 -20 -20 -20 -20 -20 -20 -20 -20 -20 -20 -20 -20 -20 -20 -20 -20 -20 -20 -20 -20 -20 -20 -20
36 34 26 28 16 7 6 -20 -0 -7 -20 -20 -20 -20 -20 -20 -20 -20 -20 -20 -20 -20 -20 -20 -20 -20 -20 -20 -20 -20 -20 -20 -20 -20 -20 -20 -20 -20 -20 -20 -20 -20 -20
35 38 32 29 21 12 8 -3 6 -16 -20 -20 -20 -20 -20 -20 -20 -20 -20 -20 -20 -20 -20 -20 -20 -20 -20 -20 -20 -20 -20 -20 -20 -20 -20 -20 -20 -20 -20 -20 -20 -20 -20
29 21 40 28 16 23 -16 -20 -7 -4 -20 -20 -20 -20 -20 -20 -20 -20 -20 -20 -20 -20 -20 -20 -20 -20 -20 -20 -20 -20 -20 -20 -20 -20 -20 -20 -20 -20 -20 -20 -20 -20 -20
9 28 31 39 23 14 2 -20 -10 5 -20 -20 -20 -20 -20 -20 -20 -20 -20 -20 -20 -20 -20 -20 -20 -20 -20 -20 -20 -20 -20 -20 -20 -20 -20 -20 -20 -20 -20 -20 -20 -20 -20
25 36 28 19 26 12 5 5 -2 -7 -3 -20 -20 -20 -20 -20 -20 -20 -20 -20 -20 -20 -20 -20 -20 -20 -20 -20 -20 -20 -20 -20 -20 -20 -20 -20 -20 -20 -20 -20 -20 -20 -20
33 27 17 15 9 22 23 11 7 7 -12 -17 -13 -20 -20 -20 -20 -20 -20 -20 -20 -20 -20 -20 -20 -20 -20 -20 -20 -20 -20 -20 -20 -20 -20 -20 -20 -20 -20 -20 -20 -20 -20
34 24 19 4 15 -1 -6 -1 4 -3 -13 -20 -20 -20 -20 -20 -20 -20 -20 -20 -20 -20 -20 -20 -20 -20 -20 -20 -20 -20 -20 -20 -20 -20 -20 -20 -20 -20 -20 -20 -20 -20 -20
32 24 15 4 15 27 17 -3 -3 -4 -17 3 -1 -19 -20 -20 -20 -20 -20 -20 -20 -20 -20 -20 -20 -20 -20 -20 -20 -20 -20 -20 -20 -20 -20 -20 -20 -20 -20 -20 -20 -20 -20
32 23 5 2 -10 -8 11 10 9 6 2 -4 -6 -20 -20 -20 -20 -20 -20 -20 -20 -20 -20 -20 -20 -20 -20 -20 -20 -20 -20 -20 -20 -20 -20 -20 -20 -20 -20 -20 -20 -20 -20
17 10 5 -0 -15 4 13 22 10 11 -1 -0 -18 -20 -19 -20 -20 -20 -20 -20 -20 -20 -20 -20 -20 -20 -20 -20 -20 -20 -20 -20 -20 -20 -20 -20 -20 -20 -20 -20 -20 -20 -20
-3 9 12 12 6 -7 7 7 -5 5 4 7 8 -1 0 -17 -20 -20 -20 -20 -20 -20 -20 -20 -20 -20 -20 -20 -20 -20 -20 -20 -20 -20 -20 -20 -20 -20 -20 -20 -20 -20 -20
18 29 25 23 19 0 -3 8 20 19 4 1 6 -1 -17 -20 -20 -20 -20 -20 -20 -20 -20 -20 -20 -20 -20 -20 -20 -20 -20 -20 -20 -20 -20 -20 -20 -20 -20 -20 -20 -20 -20
32 34 28 20 -0 -13 -16 5 18 15 13 10 9 6 -20 -20 -20 -20 -20 -20 -20 -20 -20 -20 -20 -20 -20 -20 -20 -20 -20 -20 -20 -20 -20 -20 -20 -20 -20 -20 -20 -20 -20
Wind_Speed
12 14 21 21 21 20 20 21 21 22 21 23 21 21 21 20 18 16 17 16 17 17 17 17 15 14 16 14 16 16 18 19 19 22 22 22 21 22 22 21 20 15 21
16 16 21 22 22 21 21 21 22 22 21 22 22 20 20 19 18 17 16 16 17 17 17 16 14 14 15 13 15 15 15 14 18 21 20 20 20 20 20 20 21 17 20
18 18 17 22 22 21 21 21 21 22 22 22 20 21 20 18 18 17 17 17 17 17 17 15 14 15 14 12 15 15 19 22 21 19 18 8 13 19 19 18 17 17 18
17 15 16 22 22 22 23 22 22 22 22 22 22 21 20 18 18 17 17 16 17 17 17 15 15 16 14 13 15 15 20 23 22 19 9 8 10 18 17 17 17 18 18
17 15 15 23 23 23 24 24 23 22 24 22 22 21 19 18 17 17 17 16 17 17 17 16 16 17 13 15 16 17 19 21 20 14 8 7 6 15 18 18 16 18 18
16 15 19 23 23 24 25 24 25 22 23 22 22 20 21 19 17 18 17 18 17 18 16 17 17 16 15 15 16 18 21 21 16 8 7 10 6 18 18 18 18 18 18
15 15 17 23 23 25 25 24 25 24 22 21 21 21 22 20 18 17 17 18 18 17 16 17 18 15 17 16 18 19 20 19 8 7 6 6 8 18 18 18 19 18 18
16 16 17 23 24 25 25 24 24 23 22 21 21 21 21 20 18 18 18 18 19 17 17 18 18 16 18 16 16 19 19 17 9 6 7 5 16 18 18 18 17 17 17
13 15 16 17 20 24 24 25 23 21 22 21 21 21 21 20 19 18 18 18 18 18 17 18 17 17 19 17 18 19 20 18 7 5 8 4 16 17 17 17 17 17 17
10 13 16 19 17 17 16 23 21 20 21 20 19 20 18 18 18 18 18 18 18 18 18 17 16 17 17 16 15 18 18 15 6 5 4 6 16 16 16 17 16 16 16
10 14 16 18 16 15 16 15 19 21 20 19 18 19 12 6 8 9 14 17 17 18 18 18 17 17 16 14 15 18 14 4 5 4 3 15 15 16 16 16 15 15 15
10 13 15 16 17 16 13 14 13 12 9 10 11 11 7 7 7 7 12 17 17 18 16 16 15 12 8 4 5 12 4 5 4 4 3 14 15 15 15 15 14 14 14
10 11 16 16 16 17 14 10 7 6 7 8 12 8 7 6 5 4 3 4 4 10 3 6 7 4 6 5 5 5 5 5 3 3 7 12 13 14 13 14 14 13 12
8 13 16 17 15 16 12 10 10 8 8 8 8 11 9 5 6 4 4 5 4 4 5 5 4 6 7 7 7 7 7 5 3 3 6 10 12 11 12 12 13 12 11
7 5 12 15 15 15 15 11 11 10 8 9 8 10 9 7 7 4 5 5 4 4 5 5 5 5 6 6 6 6 7 6 5 3 2 9 10 9 10 11 12 12 11
9 10 10 13 14 16 14 17 12 10 10 8 8 9 10 7 7 5 5 5 5 5 4 5 5 5 5 5 6 6 6 5 6 4 3 3 7 7 7 10 10 12 11
10 10 14 13 15 16 16 15 12 11 11 9 8 10 10 9 8 8 6 5 5 5 7 5 5 4 5 4 5 5 5 4 5 5 4 2 2 5 5 7 9 11 10
8 14 15 14 13 18 14 13 11 11 10 9 8 8 11 10 8 7 7 5 5 5 5 5 4 4 4 5 3 3 3 3 5 5 4 4 2 2 4 7 8 10 10
13 14 17 16 14 16 14 11 12 13 11 8 8 8 10 10 9 8 6 5 7 5 5 5 2 4 4 4 5 4 3 3 4 3 4 4 2 2 1 5 7 9 10
14 16 17 14 16 13 11 10 9 9 8 8 8 8 10 9 10 7 6 8 7 5 5 4 4 2 3 3 4 4 2 2 2 3 4 3 2 2 1 1 3 4 10
15 16 18 18 17 11 11 12 11 11 9 8 8 11 9 9 10 9 7 8 6 7 6 6 5 5 3 2 4 3 2 0 2 3 3 3 1 2 2 1 1 1 3
16 19 21 20 20 15 13 11 9 11 8 9 8 10 11 11 11 10 10 9 8 6 7 6 6 3 2 2 4 3 0 3 2 2 2 3 3 1 2 2 2 3 2
19 20 20 20 21 20 16 10 8 7 6 5 9 10 9 12 12 12 11 9 9 7 8 6 6 7 5 0 2 5 3 4 0 2 2 2 4 1 3 4 4 3 3
21 21 22 23 22 21 20 15 20 16 13 9 10 9 11 14 12 11 12 10 10 6 8 7 6 4 5 5 2 3 4 3 4 0 2 2 2 3 4 3 3 4 3
21 21 19 21 21 22 22 20 16 16 10 7 9 12 13 11 12 12 12 10 9 7 6 7 7 6 4 5 4 3 2 3 2 3 2 2 3 2 3 3 3 2 5
14 18 20 22 23 22 20 20 23 22 17 11 13 12 12 10 10 12 12 11 9 8 10 7 6 8 6 5 3 3 4 4 3 3 2 1 2 4 2 3 4 3 2
Wind_Direction
163 171 158 151 148 147 146 140 135 130 126 122 119 111 108 108 108 107 107 105 105 99 93 88 83 82 83 83 88 89 85 82 81 80 71 64 59 58 58 57 61 54 51
149 162 156 152 149 149 147 139 136 130 127 119 118 115 111 110 110 110 109 108 104 100 96 91 87 85 84 87 92 93 86 89 86 83 74 67 63 62 59 56 56 57 58
151 158 155 151 150 150 147 140 133 130 125 121 119 117 115 115 115 113 111 110 106 100 96 93 91 86 85 89 92 89 78 87 91 81 74 70 70 68 65 62 59 56 58
147 157 152 152 151 149 142 136 130 126 122 121 122 119 118 120 118 116 114 110 105 101 98 96 92 87 87 91 92 85 85 82 82 75 63 59 68 76 72 67 64 62 56
150 160 153 153 151 144 140 137 129 125 122 127 123 123 125 120 118 119 112 111 109 105 101 99 92 89 94 91 92 87 80 81 77 73 70 54 58 74 73 71 64 62 60
155 155 155 151 148 144 141 137 130 130 130 134 130 132 127 125 125 118 120 116 110 106 105 100 94 95 94 91 91 91 88 80 69 54 63 71 67 79 77 74 69 65 63
152 150 149 150 147 145 141 135 130 134 136 141 135 135 130 127 127 124 124 119 113 109 107 100 96 97 92 95 93 91 92 86 63 64 46 64 77 80 79 74 68 63 59
152 155 153 149 147 145 139 134 134 139 141 139 139 136 130 130 132 130 126 119 114 110 107 101 97 99 95 95 95 84 89 84 68 61 57 42 78 76 73 72 70 68 65
146 156 153 143 145 144 138 134 137 140 140 143 141 134 131 133 133 133 125 120 116 111 107 101 101 97 94 97 91 89 88 86 66 46 66 54 79 78 77 76 71 68 65
148 151 148 138 145 140 139 131 135 140 139 142 138 130 129 131 133 130 125 121 116 113 109 104 104 99 97 93 86 85 88 82 58 49 63 80 82 78 76 72 72 70 67
151 154 148 142 140 142 135 132 134 136 137 137 125 121 109 104 105 106 123 123 122 115 110 110 104 98 97 90 91 91 88 66 55 32 57 87 84 80 76 73 69 67 66
175 153 147 142 140 142 134 131 133 134 128 127 121 118 111 102 111 114 126 126 124 117 119 117 109 104 90 75 64 81 83 74 53 53 46 85 83 80 75 71 65 62 60
166 162 151 147 146 140 137 132 129 124 127 129 130 117 119 111 96 106 94 90 109 109 86 82 82 97 103 98 87 90 91 80 58 39 66 80 81 77 71 67 60 54 52
196 164 153 152 149 139 134 138 137 137 140 147 135 129 127 120 121 125 126 129 119 132 122 112 104 104 98 99 104 101 100 100 91 70 62 69 76 69 64 57 53 46 41
181 160 170 159 152 147 143 141 146 146 150 155 139 144 137 140 143 146 151 136 153 147 127 121 117 111 104 99 93 100 102 120 115 98 70 76 70 60 54 47 43 34 31
174 177 175 168 154 157 153 151 154 149 154 151 146 148 139 144 148 163 151 146 162 123 146 129 135 127 122 115 104 107 110 120 126 124 102 63 77 53 32 34 29 23 19
186 176 176 175 160 163 157 155 158 152 157 149 152 149 145 149 151 167 132 158 139 136 130 123 113 117 112 103 114 112 121 132 122 129 119 126 55 42 32 20 16 12 13
178 186 193 168 172 165 163 160 151 154 154 154 151 151 154 149 154 154 141 153 142 139 135 126 134 122 132 130 127 129 139 141 137 135 123 121 110 69 354 358 6 5 3
205 187 181 176 175 168 161 151 147 151 150 156 146 150 159 150 161 153 148 157 142 146 143 136 141 134 135 130 141 136 172 162 157 140 150 134 156 100 49 354 358 357 359
214 193 175 175 177 167 148 140 137 149 146 153 156 158 159 160 159 143 157 157 143 158 139 140 127 81 123 134 110 116 171 173 153 158 176 167 166 181 134 333 351 335 352
205 191 182 169 176 161 156 154 154 166 157 156 163 161 163 162 161 154 168 156 163 156 151 154 109 122 73 93 97 45 339 274 202 189 187 180 172 197 186 304 335 334 330
201 193 184 179 174 171 172 171 167 158 170 160 164 171 169 165 167 165 167 169 165 148 150 159 138 134 108 150 135 106 106 334 308 240 193 174 171 190 299 295 295 320 333
196 193 186 180 178 181 173 158 138 125 119 139 182 175 174 170 174 177 168 169 166 158 165 164 157 149 141 106 114 137 107 210 233 324 213 202 161 221 275 292 281 295 312
190 186 184 186 184 180 169 164 167 172 174 190 179 175 176 179 175 165 170 173 170 165 159 169 164 157 130 151 98 86 69 135 169 224 328 282 208 221 260 279 272 289 311
187 186 190 185 187 186 179 172 171 180 182 159 176 172 179 182 171 174 172 169 170 167 163 166 162 158 145 143 139 149 104 53 64 122 213 309 346 250 247 231 252 280 292
177 181 187 188 193 190 183 177 179 181 177 166 173 174 183 181 176 177 173 175 171 167 168 172 161 157 162 138 132 148 157 162 189 143 137 229 230 287 256 256 263 254 283